User: anonymous   Login
Location: St. Louis
(38.6270°N, 90.1994°W)
Time: 18:08:55
(UTC-06:00)
Language:

OPS 7613 P/L 1 - Orbit

View from above orbital plane
View from above orbital plane
View from above satellite
View from above satellite

Ground track
Ground track

The orbit data is extracted from the following two-line orbital elements,

1 04256U 69082B   22342.35562021  .00000127  00000-0  12591-3 0  9990
2 04256  70.0093 207.8759 0021915 304.5823  55.3216 13.98503161710501
Epoch (UTC): 08 December 2022 08:32:05
Eccentricity: 0.0021915
inclination: 70.0093°
perigee height: 883 km
apogee height: 915 km
right ascension of ascending node: 207.8759°
argument of perigee: 304.5823°
revolutions per day: 13.98503161
mean anomaly at epoch: 55.3216°
orbit number at epoch: 71050

The dashed part of the orbit path shows where the satellite is in the earth's shadow,  

DLR